Time,TemperatureF,DewpointF,PressureIn,WindDirection,WindDirectionDegrees,WindSpeedMPH,WindSpeedGustMPH,Humidity,HourlyPrecipIn,Conditions,Clouds,dailyrainin,SolarRadiationWatts/m^2,SoftwareType,DateUTC
2013-10-06 00:03:00,65.5,36.4,30.04,NW,310,1.2,1.2,34,0.00,CLR,,0.00,0.0,WeatherDisplay:10.37,2013-10-06 07:03:00,
2013-10-06 00:08:00,65.0,35.2,30.03,NW,310,2.0,2.0,33,0.00,CLR,,0.00,0.0,WeatherDisplay:10.37,2013-10-06 07:08:00,
2013-10-06 00:13:00,64.6,34.8,30.03,NW,310,0.0,0.0,33,0.00,CLR,,0.00,0.0,WeatherDisplay:10.37,2013-10-06 07:13:00,
2013-10-06 00:18:00,64.4,33.9,30.03,NW,310,0.0,0.0,32,0.00,CLR,,0.00,0.0,WeatherDisplay:10.37,2013-10-06 07:18:00,
2013-10-06 00:23:00,64.4,33.1,30.03,NW,310,1.2,1.2,31,0.00,CLR,,0.00,0.0,WeatherDisplay:10.37,2013-10-06 07:23:00,
2013-10-06 00:28:00,64.4,33.9,30.03,NW,310,2.3,2.3,32,0.00,CLR,,0.00,0.0,WeatherDisplay:10.37,2013-10-06 07:28:00,
2013-10-06 00:33:00,64.7,33.3,30.03,NW,310,1.2,1.2,31,0.00,CLR,,0.00,0.0,WeatherDisplay:10.37,2013-10-06 07:33:00,
2013-10-06 00:38:00,64.8,33.4,30.03,NW,310,2.3,2.3,31,0.00,CLR,,0.00,0.0,WeatherDisplay:10.37,2013-10-06 07:38:00,
2013-10-06 00:43:00,64.5,34.0,30.03,NW,310,2.3,2.3,32,0.00,CLR,,0.00,0.0,WeatherDisplay:10.37,2013-10-06 07:43:00,
2013-10-06 00:48:00,64.2,33.7,30.03,NW,310,3.5,3.5,32,0.00,CLR,,0.00,0.0,WeatherDisplay:10.37,2013-10-06 07:48:00,
2013-10-06 00:53:00,64.0,33.5,30.03,NW,310,2.3,2.3,32,0.00,CLR,,0.00,0.0,WeatherDisplay:10.37,2013-10-06 07:53:00,
2013-10-06 00:58:00,64.0,33.5,30.03,NW,310,0.0,0.0,32,0.00,CLR,,0.00,0.0,WeatherDisplay:10.37,2013-10-06 07:58:00,
2013-10-06 01:03:00,63.8,34.1,30.04,NW,310,1.2,0.0,33,0.00,CLR,,0.00,0.0,WeatherDisplay:10.37,2013-10-06 08:03:00,
2013-10-06 01:08:00,63.7,34.0,30.04,NW,310,0.0,0.0,33,0.00,CLR,,0.00,0.0,WeatherDisplay:10.37,2013-10-06 08:08:00,
2013-10-06 01:13:00,63.7,34.0,30.04,NW,310,2.3,2.3,33,0.00,CLR,,0.00,0.0,WeatherDisplay:10.37,2013-10-06 08:13:00,
2013-10-06 01:18:00,63.8,32.6,30.03,NW,310,3.5,3.5,31,0.00,CLR,,0.00,0.0,WeatherDisplay:10.37,2013-10-06 08:18:00,
2013-10-06 01:23:00,64.2,32.1,30.03,NW,310,2.3,0.0,30,0.00,CLR,,0.00,0.0,WeatherDisplay:10.37,2013-10-06 08:23:00,
2013-10-06 01:28:00,64.4,31.4,30.04,NW,310,0.0,0.0,29,0.00,CLR,,0.00,0.0,WeatherDisplay:10.37,2013-10-06 08:28:00,
2013-10-06 01:33:00,64.7,32.5,30.04,WNW,284,3.5,3.5,30,0.00,CLR,,0.00,0.0,WeatherDisplay:10.37,2013-10-06 08:33:00,
2013-10-06 01:38:00,64.8,32.6,30.04,WNW,284,0.0,0.0,30,0.00,CLR,,0.00,0.0,WeatherDisplay:10.37,2013-10-06 08:38:00,
2013-10-06 01:43:00,64.7,32.5,30.04,WNW,284,1.2,1.2,30,0.00,CLR,,0.00,0.0,WeatherDisplay:10.37,2013-10-06 08:43:00,
2013-10-06 01:48:00,64.5,32.4,30.04,WNW,284,0.0,0.0,30,0.00,CLR,,0.00,0.0,WeatherDisplay:10.37,2013-10-06 08:48:00,
2013-10-06 01:53:00,64.0,32.7,30.04,WNW,284,1.2,1.2,31,0.00,CLR,,0.00,0.0,WeatherDisplay:10.37,2013-10-06 08:53:00,
2013-10-06 01:58:00,63.8,33.4,30.04,WNW,284,2.3,2.3,32,0.00,CLR,,0.00,0.0,WeatherDisplay:10.37,2013-10-06 08:58:00,
2013-10-06 02:03:00,63.6,34.7,30.04,WNW,284,2.3,2.3,34,0.00,CLR,,0.00,0.0,WeatherDisplay:10.37,2013-10-06 09:03:00,
2013-10-06 02:08:00,63.6,34.7,30.04,WNW,284,1.2,1.2,34,0.00,CLR,,0.00,0.0,WeatherDisplay:10.37,2013-10-06 09:08:00,
2013-10-06 02:09:00,63.6,34.7,30.04,WNW,284,1.2,1.2,34,0.00,CLR,,0.00,0.0,WeatherDisplay:10.37,2013-10-06 09:09:00,
2013-10-06 02:14:00,63.6,35.4,30.04,WNW,284,1.0,1.0,35,0.00,CLR,,0.00,0.0,WeatherDisplay:10.37,2013-10-06 09:14:00,
2013-10-06 02:19:00,63.5,35.3,30.04,WNW,284,0.0,0.0,35,0.00,CLR,,0.00,0.0,WeatherDisplay:10.37,2013-10-06 09:19:00,
2013-10-06 02:24:00,63.0,35.6,30.04,WNW,284,2.3,2.3,36,0.00,CLR,,0.00,0.0,WeatherDisplay:10.37,2013-10-06 09:24:00,
2013-10-06 02:29:00,62.7,35.3,30.04,WNW,284,2.3,2.3,36,0.00,CLR,,0.00,0.0,WeatherDisplay:10.37,2013-10-06 09:29:00,
2013-10-06 02:34:00,62.4,35.8,30.04,WNW,284,2.0,2.0,37,0.00,CLR,,0.00,0.0,WeatherDisplay:10.37,2013-10-06 09:34:00,
2013-10-06 02:39:00,62.2,35.6,30.04,WNW,284,2.3,2.3,37,0.00,CLR,,0.00,0.0,WeatherDisplay:10.37,2013-10-06 09:39:00,
2013-10-06 02:44:00,62.1,36.2,30.04,WNW,284,0.0,0.0,38,0.00,CLR,,0.00,0.0,WeatherDisplay:10.37,2013-10-06 09:44:00,
2013-10-06 02:49:00,61.9,36.0,30.03,WNW,284,0.0,0.0,38,0.00,CLR,,0.00,0.0,WeatherDisplay:10.37,2013-10-06 09:49:00,
2013-10-06 02:54:00,61.9,36.7,30.04,WNW,284,0.0,0.0,39,0.00,CLR,,0.00,0.0,WeatherDisplay:10.37,2013-10-06 09:54:00,
2013-10-06 02:59:00,62.1,36.8,30.03,WNW,284,2.3,2.3,39,0.00,CLR,,0.00,0.0,WeatherDisplay:10.37,2013-10-06 09:59:00,
2013-10-06 03:04:00,61.9,36.7,30.03,WNW,284,2.3,2.3,39,0.00,CLR,,0.00,0.0,WeatherDisplay:10.37,2013-10-06 10:04:00,
2013-10-06 03:09:00,61.4,36.8,30.03,WNW,284,1.2,1.2,40,0.00,CLR,,0.00,0.0,WeatherDisplay:10.37,2013-10-06 10:09:00,
2013-10-06 03:14:00,61.1,37.2,30.03,WNW,284,4.0,4.0,41,0.00,CLR,,0.00,0.0,WeatherDisplay:10.37,2013-10-06 10:14:00,
2013-10-06 03:19:00,61.0,36.5,30.03,WNW,285,2.3,2.3,40,0.00,CLR,,0.00,0.0,WeatherDisplay:10.37,2013-10-06 10:19:00,
2013-10-06 03:24:00,61.4,36.2,30.03,WNW,288,2.3,2.3,39,0.00,CLR,,0.00,0.0,WeatherDisplay:10.37,2013-10-06 10:24:00,
2013-10-06 03:29:00,61.3,36.1,30.03,WNW,288,3.5,3.5,39,0.00,CLR,,0.00,0.0,WeatherDisplay:10.37,2013-10-06 10:29:00,
2013-10-06 03:34:00,61.3,36.1,30.03,WNW,288,3.5,3.5,39,0.00,CLR,,0.00,0.0,WeatherDisplay:10.37,2013-10-06 10:34:00,
2013-10-06 03:39:00,61.1,35.9,30.03,NW,309,3.5,3.5,39,0.00,CLR,,0.00,0.0,WeatherDisplay:10.37,2013-10-06 10:39:00,
2013-10-06 03:44:00,61.1,35.9,30.03,NW,306,3.5,3.5,39,0.00,CLR,,0.00,0.0,WeatherDisplay:10.37,2013-10-06 10:44:00,
2013-10-06 03:49:00,61.1,35.3,30.03,NW,306,3.5,3.5,38,0.00,CLR,,0.00,0.0,WeatherDisplay:10.37,2013-10-06 10:49:00,
2013-10-06 03:54:00,61.0,35.8,30.03,NW,306,3.5,3.5,39,0.00,CLR,,0.00,0.0,WeatherDisplay:10.37,2013-10-06 10:54:00,
2013-10-06 03:59:00,60.7,35.6,30.03,NW,306,0.0,0.1,39,0.00,CLR,,0.00,0.0,WeatherDisplay:10.37,2013-10-06 10:59:00,
2013-10-06 04:04:00,60.4,35.3,30.03,NW,306,1.2,0.0,39,0.00,CLR,,0.00,0.0,WeatherDisplay:10.37,2013-10-06 11:04:00,
2013-10-06 04:09:00,60.0,35.6,30.03,NW,306,1.2,1.2,40,0.00,CLR,,0.00,0.0,WeatherDisplay:10.37,2013-10-06 11:09:00,
2013-10-06 04:14:00,59.8,35.4,30.03,NW,306,0.0,0.0,40,0.00,CLR,,0.00,0.0,WeatherDisplay:10.37,2013-10-06 11:14:00,
2013-10-06 04:19:00,59.6,35.9,30.03,NW,306,1.2,0.0,41,0.00,CLR,,0.00,0.0,WeatherDisplay:10.37,2013-10-06 11:19:00,
2013-10-06 04:24:00,59.5,35.8,30.03,NW,306,0.0,0.0,41,0.00,CLR,,0.00,0.0,WeatherDisplay:10.37,2013-10-06 11:24:00,
2013-10-06 04:29:00,59.5,35.8,30.03,NW,306,1.2,0.0,41,0.00,CLR,,0.00,0.0,WeatherDisplay:10.37,2013-10-06 11:29:00,
2013-10-06 04:34:00,59.5,35.1,30.03,NW,306,1.2,0.0,40,0.00,CLR,,0.00,0.0,WeatherDisplay:10.37,2013-10-06 11:34:00,
2013-10-06 04:39:00,59.5,35.1,30.03,NW,306,0.0,0.0,40,0.00,CLR,,0.00,0.0,WeatherDisplay:10.37,2013-10-06 11:39:00,
2013-10-06 04:44:00,59.4,34.4,30.03,NW,306,1.2,1.2,39,0.00,CLR,,0.00,0.0,WeatherDisplay:10.37,2013-10-06 11:44:00,
2013-10-06 04:49:00,59.6,33.3,30.03,NW,306,2.3,2.3,37,0.00,CLR,,0.00,0.0,WeatherDisplay:10.37,2013-10-06 11:49:00,
2013-10-06 04:54:00,60.0,32.9,30.03,NW,306,3.5,3.5,36,0.00,CLR,,0.00,0.0,WeatherDisplay:10.37,2013-10-06 11:54:00,
2013-10-06 04:59:00,60.2,32.4,30.03,NW,306,1.2,1.2,35,0.00,CLR,,0.00,0.0,WeatherDisplay:10.37,2013-10-06 11:59:00,
2013-10-06 05:04:00,60.2,32.4,30.03,NW,306,0.0,0.0,35,0.00,CLR,,0.00,0.0,WeatherDisplay:10.37,2013-10-06 12:04:00,
2013-10-06 05:09:00,60.1,34.4,30.03,WNW,301,3.5,3.5,38,0.00,CLR,,0.00,0.0,WeatherDisplay:10.37,2013-10-06 12:09:00,
2013-10-06 05:14:00,59.7,34.7,30.03,WNW,301,2.0,2.0,39,0.00,CLR,,0.00,0.0,WeatherDisplay:10.37,2013-10-06 12:14:00,
2013-10-06 05:19:00,59.3,33.7,30.04,WNW,300,1.0,1.0,38,0.00,CLR,,0.00,0.0,WeatherDisplay:10.37,2013-10-06 12:19:00,
2013-10-06 05:24:00,59.0,35.3,30.04,WNW,300,2.0,2.0,41,0.00,CLR,,0.00,0.0,WeatherDisplay:10.37,2013-10-06 12:24:00,
2013-10-06 05:29:00,58.9,35.8,30.04,WNW,300,3.5,3.5,42,0.00,CLR,,0.00,0.0,WeatherDisplay:10.37,2013-10-06 12:29:00,
2013-10-06 05:34:00,58.9,35.2,30.04,WNW,300,0.0,0.0,41,0.00,CLR,,0.00,0.0,WeatherDisplay:10.37,2013-10-06 12:34:00,
2013-10-06 05:39:00,58.8,34.5,30.04,WNW,300,2.3,2.3,40,0.00,CLR,,0.00,0.0,WeatherDisplay:10.37,2013-10-06 12:39:00,
2013-10-06 05:44:00,58.7,34.4,30.04,WNW,300,1.2,0.0,40,0.00,CLR,,0.00,0.0,WeatherDisplay:10.37,2013-10-06 12:44:00,
2013-10-06 05:49:00,58.7,35.0,30.04,WNW,300,0.0,0.0,41,0.00,CLR,,0.00,0.0,WeatherDisplay:10.37,2013-10-06 12:49:00,
2013-10-06 05:54:00,58.7,35.7,30.04,WNW,300,0.0,0.0,42,0.00,CLR,,0.00,0.0,WeatherDisplay:10.37,2013-10-06 12:54:00,
2013-10-06 05:59:00,58.9,35.2,30.04,WNW,300,1.2,1.2,41,0.00,CLR,,0.00,0.0,WeatherDisplay:10.37,2013-10-06 12:59:00,
2013-10-06 06:04:00,59.0,35.3,30.04,WNW,300,3.5,3.5,41,0.00,CLR,,0.00,0.0,WeatherDisplay:10.37,2013-10-06 13:04:00,
2013-10-06 06:09:00,59.0,35.3,30.04,WNW,300,3.5,3.5,41,0.00,CLR,,0.00,0.0,WeatherDisplay:10.37,2013-10-06 13:09:00,
2013-10-06 06:14:00,59.0,35.3,30.04,WNW,300,2.3,2.3,41,0.00,CLR,,0.00,0.0,WeatherDisplay:10.37,2013-10-06 13:14:00,
2013-10-06 06:19:00,59.1,34.8,30.04,WNW,300,1.2,0.0,40,0.00,CLR,,0.00,0.0,WeatherDisplay:10.37,2013-10-06 13:19:00,
2013-10-06 06:24:00,59.3,34.3,30.05,WNW,300,1.2,0.0,39,0.00,CLR,,0.00,0.0,WeatherDisplay:10.37,2013-10-06 13:24:00,
2013-10-06 06:29:00,59.1,34.8,30.05,WNW,300,2.3,2.3,40,0.00,CLR,,0.00,0.0,WeatherDisplay:10.37,2013-10-06 13:29:00,
2013-10-06 06:34:00,59.0,34.7,30.05,WNW,300,2.3,2.3,40,0.00,CLR,,0.00,0.0,WeatherDisplay:10.37,2013-10-06 13:34:00,
2013-10-06 06:39:00,59.0,35.3,30.05,WNW,300,2.3,2.3,41,0.00,CLR,,0.00,0.0,WeatherDisplay:10.37,2013-10-06 13:39:00,
2013-10-06 06:44:00,58.9,35.2,30.05,WNW,300,0.0,0.0,41,0.00,CLR,,0.00,0.0,WeatherDisplay:10.37,2013-10-06 13:44:00,
2013-10-06 06:49:00,58.5,35.5,30.05,WNW,300,2.3,2.3,42,0.00,CLR,,0.00,0.0,WeatherDisplay:10.37,2013-10-06 13:49:00,
2013-10-06 06:54:00,58.2,35.8,30.05,WNW,300,3.5,3.5,43,0.00,CLR,,0.00,5.0,WeatherDisplay:10.37,2013-10-06 13:54:00,
2013-10-06 06:59:00,58.1,35.7,30.05,WNW,300,3.0,3.0,43,0.00,BKN,,0.00,7.0,WeatherDisplay:10.37,2013-10-06 13:59:00,
2013-10-06 07:04:00,58.0,35.6,30.05,WNW,300,3.5,3.5,43,0.00,BKN,,0.00,9.0,WeatherDisplay:10.37,2013-10-06 14:04:00,
2013-10-06 07:09:00,58.2,35.8,30.05,WNW,300,1.2,1.2,43,0.00,BKN,,0.00,12.0,WeatherDisplay:10.37,2013-10-06 14:09:00,
2013-10-06 07:14:00,58.2,35.8,30.05,WNW,300,4.0,4.0,43,0.00,BKN,,0.00,14.0,WeatherDisplay:10.37,2013-10-06 14:14:00,
2013-10-06 07:19:00,58.2,35.8,30.05,WNW,300,1.2,0.0,43,0.00,BKN,,0.00,19.0,WeatherDisplay:10.37,2013-10-06 14:19:00,
2013-10-06 07:24:00,58.2,35.8,30.05,WNW,300,3.5,3.5,43,0.00,BKN,,0.00,30.0,WeatherDisplay:10.37,2013-10-06 14:24:00,
2013-10-06 07:29:00,58.6,36.2,30.06,WNW,300,1.2,0.0,43,0.00,BKN,,0.00,44.0,WeatherDisplay:10.37,2013-10-06 14:29:00,
2013-10-06 07:34:00,59.0,35.9,30.06,WNW,300,2.3,2.3,42,0.00,BKN,,0.00,56.0,WeatherDisplay:10.37,2013-10-06 14:34:00,
2013-10-06 07:39:00,59.4,35.7,30.06,WNW,300,0.0,0.0,41,0.00,SCT,,0.00,70.0,WeatherDisplay:10.37,2013-10-06 14:39:00,
2013-10-06 07:44:00,60.1,35.0,30.06,WNW,300,3.5,3.5,39,0.00,SCT,,0.00,86.0,WeatherDisplay:10.37,2013-10-06 14:44:00,
2013-10-06 07:49:00,60.7,34.9,30.06,WNW,300,2.3,2.3,38,0.00,SCT,,0.00,102.0,WeatherDisplay:10.37,2013-10-06 14:49:00,
2013-10-06 07:54:00,61.3,36.1,30.06,WNW,300,2.3,2.3,39,0.00,SCT,,0.00,120.0,WeatherDisplay:10.37,2013-10-06 14:54:00,
2013-10-06 07:59:00,62.0,36.1,30.06,WNW,300,1.2,1.2,38,0.00,FEW,,0.00,139.0,WeatherDisplay:10.37,2013-10-06 14:59:00,
2013-10-06 08:04:00,62.5,36.5,30.06,WNW,300,3.5,3.5,38,0.00,FEW,,0.00,156.0,WeatherDisplay:10.37,2013-10-06 15:04:00,
2013-10-06 08:09:00,63.0,36.3,30.06,WNW,300,3.5,3.5,37,0.00,FEW,,0.00,172.0,WeatherDisplay:10.37,2013-10-06 15:09:00,
2013-10-06 08:14:00,63.3,35.9,30.06,WNW,300,3.5,3.5,36,0.00,FEW,,0.00,192.0,WeatherDisplay:10.37,2013-10-06 15:14:00,
2013-10-06 08:19:00,63.8,35.6,30.06,WNW,300,2.3,2.3,35,0.00,CLR,,0.00,209.0,WeatherDisplay:10.37,2013-10-06 15:19:00,
2013-10-06 08:24:00,64.3,35.3,30.06,WNW,300,3.5,3.5,34,0.00,CLR,,0.00,227.0,WeatherDisplay:10.37,2013-10-06 15:24:00,
2013-10-06 08:29:00,64.8,35.8,30.06,WNW,301,3.5,3.5,34,0.00,CLR,,0.00,241.0,WeatherDisplay:10.37,2013-10-06 15:29:00,
2013-10-06 08:34:00,65.4,35.5,30.06,WNW,301,2.3,2.3,33,0.00,CLR,,0.00,257.0,WeatherDisplay:10.37,2013-10-06 15:34:00,
2013-10-06 08:39:00,66.1,35.4,30.06,WNW,301,3.5,3.5,32,0.00,CLR,,0.00,269.0,WeatherDisplay:10.37,2013-10-06 15:39:00,
2013-10-06 08:44:00,66.7,35.9,30.06,WNW,301,3.5,3.5,32,0.00,CLR,,0.00,283.0,WeatherDisplay:10.37,2013-10-06 15:44:00,
2013-10-06 08:49:00,67.4,35.7,30.06,WNW,300,3.5,3.5,31,0.00,CLR,,0.00,297.0,WeatherDisplay:10.37,2013-10-06 15:49:00,
2013-10-06 08:54:00,68.0,36.2,30.07,WNW,300,2.3,2.3,31,0.00,CLR,,0.00,311.0,WeatherDisplay:10.37,2013-10-06 15:54:00,
2013-10-06 08:59:00,68.6,35.9,30.07,WNW,300,2.3,2.3,30,0.00,CLR,,0.00,325.0,WeatherDisplay:10.37,2013-10-06 15:59:00,
2013-10-06 09:04:00,69.4,35.7,30.07,WNW,300,0.0,0.0,29,0.00,CLR,,0.00,341.0,WeatherDisplay:10.37,2013-10-06 16:04:00,
2013-10-06 09:09:00,70.9,35.2,30.07,WNW,300,0.0,0.0,27,0.00,CLR,,0.00,357.0,WeatherDisplay:10.37,2013-10-06 16:09:00,
2013-10-06 09:14:00,72.4,35.6,30.07,WNW,300,0.0,0.0,26,0.00,CLR,,0.00,371.0,WeatherDisplay:10.37,2013-10-06 16:14:00,
2013-10-06 09:19:00,73.6,35.6,30.07,WNW,300,0.0,0.0,25,0.00,CLR,,0.00,383.0,WeatherDisplay:10.37,2013-10-06 16:19:00,
2013-10-06 09:24:00,74.3,35.2,30.07,WNW,300,2.3,2.3,24,0.00,CLR,,0.00,397.0,WeatherDisplay:10.37,2013-10-06 16:24:00,
2013-10-06 09:29:00,74.3,35.2,30.07,WNW,300,3.5,3.5,24,0.00,CLR,,0.00,411.0,WeatherDisplay:10.37,2013-10-06 16:29:00,
2013-10-06 09:34:00,74.5,35.3,30.07,WNW,300,2.3,2.3,24,0.00,CLR,,0.00,425.0,WeatherDisplay:10.37,2013-10-06 16:34:00,
2013-10-06 09:39:00,74.8,34.5,30.07,WNW,300,3.5,3.5,23,0.00,CLR,,0.00,438.0,WeatherDisplay:10.37,2013-10-06 16:39:00,
2013-10-06 09:44:00,75.1,33.6,30.07,WNW,300,3.5,3.5,22,0.00,CLR,,0.00,450.0,WeatherDisplay:10.37,2013-10-06 16:44:00,
2013-10-06 09:49:00,75.8,34.2,30.07,WNW,300,3.5,3.5,22,0.00,CLR,,0.00,461.0,WeatherDisplay:10.37,2013-10-06 16:49:00,
2013-10-06 09:54:00,76.5,33.6,30.06,WNW,300,3.5,3.5,21,0.00,CLR,,0.00,473.0,WeatherDisplay:10.37,2013-10-06 16:54:00,
2013-10-06 09:59:00,77.2,33.0,30.07,WNW,300,4.0,4.0,20,0.00,CLR,,0.00,485.0,WeatherDisplay:10.37,2013-10-06 16:59:00,
2013-10-06 10:04:00,78.0,33.7,30.07,WNW,300,3.5,3.5,20,0.00,CLR,,0.00,497.0,WeatherDisplay:10.37,2013-10-06 17:04:00,
2013-10-06 10:09:00,78.7,31.6,30.07,WNW,300,2.3,2.3,18,0.00,CLR,,0.00,512.0,WeatherDisplay:10.37,2013-10-06 17:09:00,
2013-10-06 10:14:00,79.4,27.7,30.07,WNW,300,3.5,3.5,15,0.00,CLR,,0.00,522.0,WeatherDisplay:10.37,2013-10-06 17:14:00,
2013-10-06 10:19:00,80.1,28.3,30.06,WNW,300,3.5,3.5,15,0.00,CLR,,0.00,534.0,WeatherDisplay:10.37,2013-10-06 17:19:00,
2013-10-06 10:24:00,80.4,25.0,30.06,WNW,299,5.0,5.0,13,0.00,CLR,,0.00,545.0,WeatherDisplay:10.37,2013-10-06 17:24:00,
2013-10-06 10:29:00,80.9,25.4,30.06,WNW,299,4.6,4.6,13,0.00,CLR,,0.00,554.0,WeatherDisplay:10.37,2013-10-06 17:29:00,
2013-10-06 10:34:00,81.7,26.0,30.06,WNW,302,5.0,5.0,13,0.00,FEW,,0.00,564.0,WeatherDisplay:10.37,2013-10-06 17:34:00,
2013-10-06 10:39:00,82.1,26.4,30.06,NW,305,4.6,4.6,13,0.00,FEW,,0.00,575.0,WeatherDisplay:10.37,2013-10-06 17:39:00,
2013-10-06 10:44:00,82.3,24.6,30.06,WNW,297,6.0,6.0,12,0.00,FEW,,0.00,585.0,WeatherDisplay:10.37,2013-10-06 17:44:00,
2013-10-06 10:49:00,82.6,20.5,30.06,WNW,297,3.5,3.5,10,0.00,FEW,,0.00,594.0,WeatherDisplay:10.37,2013-10-06 17:49:00,
2013-10-06 10:54:00,83.0,18.3,30.06,WNW,297,6.0,6.0,9,0.00,FEW,,0.00,603.0,WeatherDisplay:10.37,2013-10-06 17:54:00,
2013-10-06 10:59:00,83.0,18.3,30.05,WNW,286,5.0,5.0,9,0.00,FEW,,0.00,610.0,WeatherDisplay:10.37,2013-10-06 17:59:00,
2013-10-06 11:04:00,83.3,18.5,30.05,WNW,290,5.8,5.8,9,0.00,FEW,,0.00,619.0,WeatherDisplay:10.37,2013-10-06 18:04:00,
2013-10-06 11:09:00,83.3,18.5,30.05,WNW,282,5.8,5.8,9,0.00,FEW,,0.00,626.0,WeatherDisplay:10.37,2013-10-06 18:09:00,
2013-10-06 11:14:00,83.8,18.9,30.05,NW,318,5.8,5.8,9,0.00,FEW,,0.00,635.0,WeatherDisplay:10.37,2013-10-06 18:14:00,
2013-10-06 11:19:00,84.1,16.4,30.05,NW,318,5.0,5.0,8,0.00,FEW,,0.00,640.0,WeatherDisplay:10.37,2013-10-06 18:19:00,
2013-10-06 11:24:00,84.5,19.4,30.05,NW,323,5.8,5.8,9,0.00,FEW,,0.00,647.0,WeatherDisplay:10.37,2013-10-06 18:24:00,
2013-10-06 11:29:00,84.8,19.7,30.04,NW,324,3.0,3.0,9,0.00,FEW,,0.00,652.0,WeatherDisplay:10.37,2013-10-06 18:29:00,
2013-10-06 11:34:00,85.0,14.0,30.04,NW,319,6.9,6.9,7,0.00,FEW,,0.00,659.0,WeatherDisplay:10.37,2013-10-06 18:34:00,
2013-10-06 11:39:00,84.8,16.9,30.04,NW,315,6.9,6.9,8,0.00,FEW,,0.00,664.0,WeatherDisplay:10.37,2013-10-06 18:39:00,
2013-10-06 11:44:00,84.9,17.0,30.04,NW,313,6.0,6.0,8,0.00,FEW,,0.00,670.0,WeatherDisplay:10.37,2013-10-06 18:44:00,
2013-10-06 11:49:00,85.1,17.1,30.03,NW,318,6.9,6.9,8,0.00,FEW,,0.00,675.0,WeatherDisplay:10.37,2013-10-06 18:49:00,
2013-10-06 11:54:00,85.3,14.2,30.03,WNW,298,8.1,8.1,7,0.00,FEW,,0.00,679.0,WeatherDisplay:10.37,2013-10-06 18:54:00,
2013-10-06 11:59:00,85.4,17.4,30.03,West,275,7.0,7.0,8,0.00,FEW,,0.00,682.0,WeatherDisplay:10.37,2013-10-06 18:59:00,
2013-10-06 12:04:00,85.4,17.4,30.03,WNW,293,5.8,5.8,8,0.00,FEW,,0.00,684.0,WeatherDisplay:10.37,2013-10-06 19:04:00,
2013-10-06 12:09:00,85.9,14.7,30.03,West,265,9.2,9.2,7,0.00,FEW,,0.00,689.0,WeatherDisplay:10.37,2013-10-06 19:09:00,
2013-10-06 12:14:00,86.3,15.0,30.03,West,273,6.9,6.9,7,0.00,FEW,,0.00,691.0,WeatherDisplay:10.37,2013-10-06 19:14:00,
2013-10-06 12:19:00,86.6,15.2,30.02,WNW,284,8.1,8.1,7,0.00,FEW,,0.00,694.0,WeatherDisplay:10.37,2013-10-06 19:19:00,
2013-10-06 12:24:00,86.7,15.2,30.02,WNW,297,3.5,3.5,7,0.00,FEW,,0.00,694.0,WeatherDisplay:10.37,2013-10-06 19:24:00,
2013-10-06 12:29:00,87.5,15.8,30.02,NNW,330,7.0,7.0,7,0.00,FEW,,0.00,698.0,WeatherDisplay:10.37,2013-10-06 19:29:00,
2013-10-06 12:34:00,87.2,15.6,30.02,NW,306,1.2,1.2,7,0.00,FEW,,0.00,694.0,WeatherDisplay:10.37,2013-10-06 19:34:00,
2013-10-06 12:39:00,87.7,16.0,30.02,NW,317,4.0,4.0,7,0.00,FEW,,0.00,696.0,WeatherDisplay:10.37,2013-10-06 19:39:00,
2013-10-06 12:44:00,88.0,12.7,30.01,West,262,8.1,8.1,6,0.00,FEW,,0.00,698.0,WeatherDisplay:10.37,2013-10-06 19:44:00,
2013-10-06 12:49:00,87.9,16.1,30.01,NW,311,4.6,4.6,7,0.00,FEW,,0.00,694.0,WeatherDisplay:10.37,2013-10-06 19:49:00,
2013-10-06 12:54:00,88.6,16.6,30.01,NW,323,5.0,5.0,7,0.00,FEW,,0.00,694.0,WeatherDisplay:10.37,2013-10-06 19:54:00,
2013-10-06 12:59:00,89.3,17.1,30.01,NNW,328,4.6,4.6,7,0.00,FEW,,0.00,693.0,WeatherDisplay:10.37,2013-10-06 19:59:00,
2013-10-06 13:04:00,89.1,13.5,30.00,NNW,329,2.3,0.0,6,0.00,FEW,,0.00,687.0,WeatherDisplay:10.37,2013-10-06 20:04:00,
2013-10-06 13:09:00,89.7,17.4,30.00,WNW,296,5.0,5.0,7,0.00,FEW,,0.00,689.0,WeatherDisplay:10.37,2013-10-06 20:09:00,
2013-10-06 13:14:00,90.0,14.1,30.00,NW,309,8.0,8.0,6,0.00,FEW,,0.00,668.0,WeatherDisplay:10.37,2013-10-06 20:14:00,
2013-10-06 13:19:00,89.5,13.7,29.99,NW,320,6.9,6.9,6,0.00,FEW,,0.00,684.0,WeatherDisplay:10.37,2013-10-06 20:19:00,
2013-10-06 13:25:00,89.8,14.0,29.99,NW,308,4.0,4.0,6,0.00,FEW,,0.00,677.0,WeatherDisplay:10.37,2013-10-06 20:25:00,
2013-10-06 13:30:00,90.0,14.1,29.99,NW,304,5.0,5.0,6,0.00,FEW,,0.00,673.0,WeatherDisplay:10.37,2013-10-06 20:30:00,
2013-10-06 13:35:00,90.4,14.4,29.99,WSW,246,7.0,7.0,6,0.00,FEW,,0.00,670.0,WeatherDisplay:10.37,2013-10-06 20:35:00,
2013-10-06 13:40:00,90.6,14.5,29.98,WSW,252,3.5,3.5,6,0.00,FEW,,0.00,666.0,WeatherDisplay:10.37,2013-10-06 20:40:00,
2013-10-06 13:45:00,90.8,14.7,29.98,WSW,254,4.0,4.0,6,0.00,FEW,,0.00,577.0,WeatherDisplay:10.37,2013-10-06 20:45:00,
2013-10-06 13:50:00,91.0,14.8,29.98,WSW,257,7.0,7.0,6,0.00,SCT,,0.00,601.0,WeatherDisplay:10.37,2013-10-06 20:50:00,
2013-10-06 13:55:00,91.0,14.8,29.98,SSW,200,4.6,4.6,6,0.00,FEW,,0.00,649.0,WeatherDisplay:10.37,2013-10-06 20:55:00,
2013-10-06 14:00:00,91.1,14.9,29.97,SSW,205,4.0,4.0,6,0.00,FEW,,0.00,645.0,WeatherDisplay:10.37,2013-10-06 21:00:00,
2013-10-06 14:05:00,91.3,15.0,29.97,SSW,198,6.0,6.0,6,0.00,FEW,,0.00,638.0,WeatherDisplay:10.37,2013-10-06 21:05:00,
2013-10-06 14:10:00,91.3,15.0,29.97,WNW,288,8.1,8.1,6,0.00,FEW,,0.00,628.0,WeatherDisplay:10.37,2013-10-06 21:10:00,
2013-10-06 14:15:00,91.2,15.0,29.97,West,265,4.0,4.0,6,0.00,FEW,,0.00,621.0,WeatherDisplay:10.37,2013-10-06 21:15:00,
2013-10-06 14:20:00,91.3,15.0,29.96,WNW,301,3.5,3.5,6,0.00,FEW,,0.00,612.0,WeatherDisplay:10.37,2013-10-06 21:20:00,
2013-10-06 14:25:00,91.4,15.1,29.97,WSW,257,11.5,11.5,6,0.00,FEW,,0.00,605.0,WeatherDisplay:10.37,2013-10-06 21:25:00,
2013-10-06 14:30:00,91.2,15.0,29.96,SW,217,8.1,8.1,6,0.00,FEW,,0.00,594.0,WeatherDisplay:10.37,2013-10-06 21:30:00,
2013-10-06 14:35:00,91.2,15.0,29.96,West,269,9.2,9.2,6,0.00,FEW,,0.00,587.0,WeatherDisplay:10.37,2013-10-06 21:35:00,
2013-10-06 14:40:00,91.5,15.2,29.96,West,265,3.5,3.5,6,0.00,CLR,,0.00,578.0,WeatherDisplay:10.37,2013-10-06 21:40:00,
2013-10-06 14:45:00,92.2,15.7,29.96,West,261,7.0,7.0,6,0.00,CLR,,0.00,570.0,WeatherDisplay:10.37,2013-10-06 21:45:00,
2013-10-06 14:50:00,92.1,15.6,29.96,West,261,8.0,8.0,6,0.00,CLR,,0.00,561.0,WeatherDisplay:10.37,2013-10-06 21:50:00,
2013-10-06 14:55:00,92.0,15.5,29.96,SSW,205,7.0,7.0,6,0.00,FEW,,0.00,503.0,WeatherDisplay:10.37,2013-10-06 21:55:00,
2013-10-06 15:00:00,92.1,15.6,29.96,WSW,252,5.0,5.0,6,0.00,CLR,,0.00,545.0,WeatherDisplay:10.37,2013-10-06 22:00:00,
2013-10-06 15:05:00,92.2,15.7,29.95,WNW,284,9.0,9.0,6,0.00,CLR,,0.00,534.0,WeatherDisplay:10.37,2013-10-06 22:05:00,
2013-10-06 15:10:00,92.0,15.5,29.95,WNW,292,8.0,8.0,6,0.00,CLR,,0.00,522.0,WeatherDisplay:10.37,2013-10-06 22:10:00,
2013-10-06 15:15:00,91.6,15.2,29.95,WNW,294,7.0,7.0,6,0.00,CLR,,0.00,512.0,WeatherDisplay:10.37,2013-10-06 22:15:00,
2013-10-06 15:20:00,91.7,15.3,29.95,WSW,252,10.0,10.0,6,0.00,CLR,,0.00,497.0,WeatherDisplay:10.37,2013-10-06 22:20:00,
2013-10-06 15:25:00,91.4,15.1,29.95,West,268,6.0,6.0,6,0.00,FEW,,0.00,480.0,WeatherDisplay:10.37,2013-10-06 22:25:00,
2013-10-06 15:30:00,91.4,15.1,29.95,West,265,11.5,11.5,6,0.00,FEW,,0.00,462.0,WeatherDisplay:10.37,2013-10-06 22:30:00,
2013-10-06 15:35:00,91.5,15.2,29.95,West,266,11.5,11.5,6,0.00,CLR,,0.00,468.0,WeatherDisplay:10.37,2013-10-06 22:35:00,
2013-10-06 15:40:00,91.8,15.4,29.94,WNW,298,9.0,9.0,6,0.00,CLR,,0.00,457.0,WeatherDisplay:10.37,2013-10-06 22:40:00,
2013-10-06 15:45:00,91.4,15.1,29.94,WNW,293,10.4,10.4,6,0.00,CLR,,0.00,445.0,WeatherDisplay:10.37,2013-10-06 22:45:00,
2013-10-06 15:50:00,91.1,14.9,29.94,West,279,4.6,4.6,6,0.00,CLR,,0.00,432.0,WeatherDisplay:10.37,2013-10-06 22:50:00,
2013-10-06 15:55:00,91.8,15.4,29.94,West,263,5.0,5.0,6,0.00,CLR,,0.00,420.0,WeatherDisplay:10.37,2013-10-06 22:55:00,
2013-10-06 16:00:00,92.1,15.6,29.93,SSW,205,7.0,7.0,6,0.00,CLR,,0.00,390.0,WeatherDisplay:10.37,2013-10-06 23:00:00,
2013-10-06 16:05:00,92.1,15.6,29.93,West,277,8.1,8.1,6,0.00,CLR,,0.00,396.0,WeatherDisplay:10.37,2013-10-06 23:05:00,
2013-10-06 16:10:00,91.9,15.5,29.93,West,269,9.2,9.2,6,0.00,CLR,,0.00,381.0,WeatherDisplay:10.37,2013-10-06 23:10:00,
2013-10-06 16:15:00,91.6,15.2,29.93,West,280,10.4,10.4,6,0.00,CLR,,0.00,360.0,WeatherDisplay:10.37,2013-10-06 23:15:00,
2013-10-06 16:20:00,91.3,15.0,29.93,NW,308,12.0,12.0,6,0.00,CLR,,0.00,343.0,WeatherDisplay:10.37,2013-10-06 23:20:00,
2013-10-06 16:25:00,91.0,14.8,29.93,West,275,10.4,10.4,6,0.00,CLR,,0.00,341.0,WeatherDisplay:10.37,2013-10-06 23:25:00,
2013-10-06 16:30:00,91.1,14.9,29.93,WSW,254,11.5,11.5,6,0.00,CLR,,0.00,322.0,WeatherDisplay:10.37,2013-10-06 23:30:00,
2013-10-06 16:35:00,90.8,14.7,29.93,WNW,282,10.4,10.4,6,0.00,CLR,,0.00,276.0,WeatherDisplay:10.37,2013-10-06 23:35:00,
2013-10-06 16:40:00,90.5,14.5,29.93,West,278,9.2,9.2,6,0.00,CLR,,0.00,287.0,WeatherDisplay:10.37,2013-10-06 23:40:00,
2013-10-06 16:45:00,90.2,17.8,29.93,WSW,258,11.5,11.5,7,0.00,CLR,,0.00,272.0,WeatherDisplay:10.37,2013-10-06 23:45:00,
2013-10-06 16:50:00,90.0,23.6,29.93,West,279,11.5,11.5,9,0.00,CLR,,0.00,269.0,WeatherDisplay:10.37,2013-10-06 23:50:00,
2013-10-06 16:55:00,89.5,25.7,29.93,WNW,300,12.0,12.0,10,0.00,CLR,,0.00,251.0,WeatherDisplay:10.37,2013-10-06 23:55:00,
2013-10-06 17:00:00,89.1,31.8,29.93,WNW,292,11.5,11.5,13,0.00,FEW,,0.00,218.0,WeatherDisplay:10.37,2013-10-07 00:00:00,
2013-10-06 17:05:00,88.3,33.1,29.93,WNW,293,11.5,11.5,14,0.00,CLR,,0.00,216.0,WeatherDisplay:10.37,2013-10-07 00:05:00,
2013-10-06 17:10:00,88.1,31.1,29.93,West,278,11.5,11.5,13,0.00,CLR,,0.00,200.0,WeatherDisplay:10.37,2013-10-07 00:10:00,
2013-10-06 17:15:00,88.0,29.0,29.93,WNW,284,10.4,10.4,12,0.00,CLR,,0.00,183.0,WeatherDisplay:10.37,2013-10-07 00:15:00,
2013-10-06 17:20:00,87.8,24.4,29.93,West,281,11.5,11.5,10,0.00,CLR,,0.00,163.0,WeatherDisplay:10.37,2013-10-07 00:20:00,
2013-10-06 17:25:00,87.5,28.6,29.93,West,261,11.0,11.0,12,0.00,CLR,,0.00,142.0,WeatherDisplay:10.37,2013-10-07 00:25:00,
2013-10-06 17:30:00,87.2,30.4,29.93,WSW,257,11.5,11.5,13,0.00,FEW,,0.00,127.0,WeatherDisplay:10.37,2013-10-07 00:30:00,
2013-10-06 17:35:00,87.0,32.0,29.93,West,268,9.2,9.2,14,0.00,FEW,,0.00,107.0,WeatherDisplay:10.37,2013-10-07 00:35:00,
2013-10-06 17:40:00,86.8,26.0,29.93,West,270,12.0,12.0,11,0.00,SCT,,0.00,90.0,WeatherDisplay:10.37,2013-10-07 00:40:00,
2013-10-06 17:45:00,86.0,27.5,29.93,West,272,12.7,12.7,12,0.00,SCT,,0.00,74.0,WeatherDisplay:10.37,2013-10-07 00:45:00,
2013-10-06 17:50:00,85.5,25.0,29.93,WNW,283,11.5,11.5,11,0.00,SCT,,0.00,56.0,WeatherDisplay:10.37,2013-10-07 00:50:00,
2013-10-06 17:55:00,84.8,26.5,29.94,West,265,9.2,9.2,12,0.00,BKN,,0.00,19.0,WeatherDisplay:10.37,2013-10-07 00:55:00,
2013-10-06 18:00:00,84.3,29.9,29.94,West,260,13.0,13.0,14,0.00,BKN,,0.00,33.0,WeatherDisplay:10.37,2013-10-07 01:00:00,
2013-10-06 18:05:00,83.9,31.3,29.94,WNW,284,6.0,6.0,15,0.00,BKN,,0.00,23.0,WeatherDisplay:10.37,2013-10-07 01:05:00,
2013-10-06 18:10:00,83.4,30.9,29.94,West,269,8.1,8.1,15,0.00,BKN,,0.00,16.0,WeatherDisplay:10.37,2013-10-07 01:10:00,
2013-10-06 18:15:00,83.1,28.9,29.94,WNW,288,6.9,6.9,14,0.00,BKN,,0.00,11.0,WeatherDisplay:10.37,2013-10-07 01:15:00,
2013-10-06 18:20:00,82.6,24.8,29.94,WNW,292,9.2,9.2,12,0.00,BKN,,0.00,7.0,WeatherDisplay:10.37,2013-10-07 01:20:00,
2013-10-06 18:25:00,82.0,22.3,29.94,West,281,11.0,11.0,11,0.00,BKN,,0.00,5.0,WeatherDisplay:10.37,2013-10-07 01:25:00,
2013-10-06 18:30:00,81.4,23.9,29.94,West,281,9.2,9.2,12,0.00,CLR,,0.00,0.0,WeatherDisplay:10.37,2013-10-07 01:30:00,
2013-10-06 18:35:00,81.1,23.7,29.94,WNW,286,8.1,8.1,12,0.00,CLR,,0.00,0.0,WeatherDisplay:10.37,2013-10-07 01:35:00,
2013-10-06 18:40:00,80.7,23.3,29.94,WNW,290,6.9,6.9,12,0.00,CLR,,0.00,0.0,WeatherDisplay:10.37,2013-10-07 01:40:00,
2013-10-06 18:45:00,80.5,25.1,29.94,NW,308,8.1,8.1,13,0.00,CLR,,0.00,0.0,WeatherDisplay:10.37,2013-10-07 01:45:00,
2013-10-06 18:50:00,80.1,24.8,29.94,WNW,301,8.1,8.1,13,0.00,CLR,,0.00,0.0,WeatherDisplay:10.37,2013-10-07 01:50:00,
2013-10-06 18:55:00,79.6,24.4,29.94,WNW,287,7.0,7.0,13,0.00,CLR,,0.00,0.0,WeatherDisplay:10.37,2013-10-07 01:55:00,
2013-10-06 19:00:00,79.1,25.8,29.94,West,273,8.1,8.1,14,0.00,CLR,,0.00,0.0,WeatherDisplay:10.37,2013-10-07 02:00:00,
2013-10-06 19:05:00,78.5,27.0,29.94,WNW,282,9.2,9.2,15,0.00,CLR,,0.00,0.0,WeatherDisplay:10.37,2013-10-07 02:05:00,
2013-10-06 19:10:00,78.0,28.1,29.94,WNW,288,9.2,9.2,16,0.00,CLR,,0.00,0.0,WeatherDisplay:10.37,2013-10-07 02:10:00,
2013-10-06 19:15:00,77.7,29.4,29.94,West,281,6.9,6.9,17,0.00,CLR,,0.00,0.0,WeatherDisplay:10.37,2013-10-07 02:15:00,
2013-10-06 19:20:00,77.4,29.1,29.94,WNW,284,4.6,4.6,17,0.00,CLR,,0.00,0.0,WeatherDisplay:10.37,2013-10-07 02:20:00,
2013-10-06 19:25:00,77.1,30.3,29.94,NW,311,8.0,8.0,18,0.00,CLR,,0.00,0.0,WeatherDisplay:10.37,2013-10-07 02:25:00,
2013-10-06 19:30:00,76.9,30.1,29.94,NW,307,5.8,5.8,18,0.00,CLR,,0.00,0.0,WeatherDisplay:10.37,2013-10-07 02:30:00,
2013-10-06 19:36:00,76.6,31.2,29.94,WNW,296,5.8,5.8,19,0.00,CLR,,0.00,0.0,WeatherDisplay:10.37,2013-10-07 02:36:00,
2013-10-06 19:41:00,76.3,31.0,29.95,WNW,297,5.0,5.0,19,0.00,CLR,,0.00,0.0,WeatherDisplay:10.37,2013-10-07 02:41:00,
2013-10-06 19:46:00,76.1,30.8,29.95,WNW,298,5.8,5.8,19,0.00,CLR,,0.00,0.0,WeatherDisplay:10.37,2013-10-07 02:46:00,
2013-10-06 19:51:00,76.0,32.0,29.95,WNW,299,7.0,7.0,20,0.00,CLR,,0.00,0.0,WeatherDisplay:10.37,2013-10-07 02:51:00,
2013-10-06 19:56:00,75.7,31.8,29.95,WNW,301,6.9,6.9,20,0.00,CLR,,0.00,0.0,WeatherDisplay:10.37,2013-10-07 02:56:00,
2013-10-06 20:01:00,75.5,32.8,29.95,WNW,294,4.6,4.6,21,0.00,CLR,,0.00,0.0,WeatherDisplay:10.37,2013-10-07 03:01:00,
2013-10-06 20:06:00,75.2,33.7,29.95,WNW,294,3.5,3.5,22,0.00,CLR,,0.00,0.0,WeatherDisplay:10.37,2013-10-07 03:06:00,
2013-10-06 20:11:00,74.9,34.6,29.95,WNW,294,1.2,1.2,23,0.00,CLR,,0.00,0.0,WeatherDisplay:10.37,2013-10-07 03:11:00,
2013-10-06 20:16:00,74.7,34.4,29.95,WNW,294,1.2,1.2,23,0.00,CLR,,0.00,0.0,WeatherDisplay:10.37,2013-10-07 03:16:00,
2013-10-06 20:21:00,74.3,35.2,29.95,WNW,294,1.2,1.2,24,0.00,CLR,,0.00,0.0,WeatherDisplay:10.37,2013-10-07 03:21:00,
2013-10-06 20:26:00,74.0,34.9,29.95,WNW,294,1.2,0.0,24,0.00,CLR,,0.00,0.0,WeatherDisplay:10.37,2013-10-07 03:26:00,
2013-10-06 20:31:00,73.7,35.7,29.95,WNW,294,0.0,0.0,25,0.00,CLR,,0.00,0.0,WeatherDisplay:10.37,2013-10-07 03:31:00,
2013-10-06 20:36:00,73.3,36.3,29.95,WNW,294,0.0,0.0,26,0.00,CLR,,0.00,0.0,WeatherDisplay:10.37,2013-10-07 03:36:00,
2013-10-06 20:41:00,72.9,36.9,29.96,WNW,294,0.0,0.0,27,0.00,CLR,,0.00,0.0,WeatherDisplay:10.37,2013-10-07 03:41:00,
2013-10-06 20:46:00,72.5,37.5,29.96,WNW,294,1.2,0.0,28,0.00,CLR,,0.00,0.0,WeatherDisplay:10.37,2013-10-07 03:46:00,
2013-10-06 20:51:00,72.4,43.2,29.96,WNW,294,3.5,3.5,35,0.00,CLR,,0.00,0.0,WeatherDisplay:10.37,2013-10-07 03:51:00,
2013-10-06 20:56:00,72.6,46.2,29.96,WNW,294,3.5,3.5,39,0.00,CLR,,0.00,0.0,WeatherDisplay:10.37,2013-10-07 03:56:00,
2013-10-06 21:01:00,72.5,48.1,29.95,WNW,294,4.6,4.6,42,0.00,CLR,,0.00,0.0,WeatherDisplay:10.37,2013-10-07 04:01:00,
2013-10-06 21:02:00,72.3,47.9,29.96,WNW,294,3.5,3.5,42,0.00,CLR,,0.00,0.0,WeatherDisplay:10.37,2013-10-07 04:02:00,
2013-10-06 21:07:00,72.1,48.4,29.96,WNW,294,2.3,0.0,43,0.00,CLR,,0.00,0.0,WeatherDisplay:10.37,2013-10-07 04:07:00,
2013-10-06 21:12:00,71.9,48.8,29.96,WNW,294,0.0,0.0,44,0.00,CLR,,0.00,0.0,WeatherDisplay:10.37,2013-10-07 04:12:00,
2013-10-06 21:17:00,71.6,48.5,29.96,WNW,294,0.0,0.0,44,0.00,CLR,,0.00,0.0,WeatherDisplay:10.37,2013-10-07 04:17:00,
2013-10-06 21:22:00,71.2,49.4,29.95,WNW,294,0.0,0.0,46,0.00,CLR,,0.00,0.0,WeatherDisplay:10.37,2013-10-07 04:22:00,
2013-10-06 21:27:00,70.9,49.7,29.96,WNW,294,0.0,0.0,47,0.00,CLR,,0.00,0.0,WeatherDisplay:10.37,2013-10-07 04:27:00,
2013-10-06 21:32:00,70.5,49.3,29.96,WNW,294,0.0,0.0,47,0.00,CLR,,0.00,0.0,WeatherDisplay:10.37,2013-10-07 04:32:00,
2013-10-06 21:37:00,70.2,49.6,29.96,WNW,294,0.0,0.0,48,0.00,CLR,,0.00,0.0,WeatherDisplay:10.37,2013-10-07 04:37:00,
2013-10-06 21:42:00,69.9,49.3,29.96,WNW,294,0.0,0.0,48,0.00,CLR,,0.00,0.0,WeatherDisplay:10.37,2013-10-07 04:42:00,
2013-10-06 21:47:00,69.5,49.5,29.95,WNW,294,0.0,0.0,49,0.00,CLR,,0.00,0.0,WeatherDisplay:10.37,2013-10-07 04:47:00,
2013-10-06 21:52:00,69.2,49.2,29.95,WNW,294,0.0,0.0,49,0.00,CLR,,0.00,0.0,WeatherDisplay:10.37,2013-10-07 04:52:00,
2013-10-06 21:57:00,68.9,49.5,29.95,WNW,294,0.0,0.0,50,0.00,CLR,,0.00,0.0,WeatherDisplay:10.37,2013-10-07 04:57:00,
2013-10-06 22:02:00,68.6,48.1,29.95,WNW,294,0.0,0.0,48,0.00,CLR,,0.00,0.0,WeatherDisplay:10.37,2013-10-07 05:02:00,
2013-10-06 22:07:00,68.5,48.6,29.95,WNW,294,0.0,0.0,49,0.00,CLR,,0.00,0.0,WeatherDisplay:10.37,2013-10-07 05:07:00,
2013-10-06 22:12:00,68.3,48.4,29.95,WNW,294,0.0,0.0,49,0.00,CLR,,0.00,0.0,WeatherDisplay:10.37,2013-10-07 05:12:00,
2013-10-06 22:17:00,68.2,48.3,29.95,WNW,294,0.0,0.0,49,0.00,CLR,,0.00,0.0,WeatherDisplay:10.37,2013-10-07 05:17:00,
2013-10-06 22:22:00,68.2,47.8,29.95,WNW,294,0.0,0.0,48,0.00,CLR,,0.00,0.0,WeatherDisplay:10.37,2013-10-07 05:22:00,
2013-10-06 22:27:00,68.1,47.1,29.95,WNW,294,1.2,1.2,47,0.00,CLR,,0.00,0.0,WeatherDisplay:10.37,2013-10-07 05:27:00,
2013-10-06 22:33:00,68.1,46.5,29.95,WNW,294,1.2,1.2,46,0.00,CLR,,0.00,0.0,WeatherDisplay:10.37,2013-10-07 05:33:00,
2013-10-06 22:38:00,68.2,47.2,29.95,WNW,294,0.0,0.0,47,0.00,CLR,,0.00,0.0,WeatherDisplay:10.37,2013-10-07 05:38:00,
2013-10-06 22:43:00,68.1,46.5,29.95,WNW,294,0.0,0.0,46,0.00,CLR,,0.00,0.0,WeatherDisplay:10.37,2013-10-07 05:43:00,
2013-10-06 22:48:00,67.9,46.3,29.95,WNW,294,1.0,1.0,46,0.00,CLR,,0.00,0.0,WeatherDisplay:10.37,2013-10-07 05:48:00,
2013-10-06 22:53:00,67.7,45.6,29.95,WNW,294,1.2,0.0,45,0.00,CLR,,0.00,0.0,WeatherDisplay:10.37,2013-10-07 05:53:00,
2013-10-06 22:58:00,67.5,45.4,29.95,WNW,294,1.2,1.2,45,0.00,CLR,,0.00,0.0,WeatherDisplay:10.37,2013-10-07 05:58:00,
2013-10-06 23:03:00,67.3,45.8,29.95,WNW,294,0.0,0.0,46,0.00,CLR,,0.00,0.0,WeatherDisplay:10.37,2013-10-07 06:03:00,
2013-10-06 23:08:00,67.0,46.1,29.95,WNW,294,0.0,0.0,47,0.00,CLR,,0.00,0.0,WeatherDisplay:10.37,2013-10-07 06:08:00,
2013-10-06 23:13:00,66.7,45.8,29.95,WNW,294,0.0,0.0,47,0.00,CLR,,0.00,0.0,WeatherDisplay:10.37,2013-10-07 06:13:00,
2013-10-06 23:18:00,66.3,44.9,29.95,WNW,294,0.0,0.0,46,0.00,CLR,,0.00,0.0,WeatherDisplay:10.37,2013-10-07 06:18:00,
2013-10-06 23:23:00,66.0,44.6,29.95,WNW,294,0.0,0.0,46,0.00,CLR,,0.00,0.0,WeatherDisplay:10.37,2013-10-07 06:23:00,
2013-10-06 23:28:00,65.8,43.9,29.94,WNW,294,1.2,0.0,45,0.00,CLR,,0.00,0.0,WeatherDisplay:10.37,2013-10-07 06:28:00,
2013-10-06 23:33:00,65.6,42.5,29.94,WNW,294,0.0,0.0,43,0.00,CLR,,0.00,0.0,WeatherDisplay:10.37,2013-10-07 06:33:00,
2013-10-06 23:38:00,65.4,42.3,29.94,WNW,294,0.0,0.0,43,0.00,CLR,,0.00,0.0,WeatherDisplay:10.37,2013-10-07 06:38:00,
2013-10-06 23:43:00,65.3,41.0,29.94,WNW,294,0.0,0.0,41,0.00,CLR,,0.00,0.0,WeatherDisplay:10.37,2013-10-07 06:43:00,
2013-10-06 23:48:00,65.3,39.7,29.94,WNW,294,1.2,1.2,39,0.00,CLR,,0.00,0.0,WeatherDisplay:10.37,2013-10-07 06:48:00,
2013-10-06 23:53:00,65.4,39.1,29.94,WNW,294,1.2,1.2,38,0.00,CLR,,0.00,0.0,WeatherDisplay:10.37,2013-10-07 06:53:00,
2013-10-06 23:58:00,65.4,38.4,29.94,WNW,294,1.2,1.2,37,0.00,CLR,,0.00,0.0,WeatherDisplay:10.37,2013-10-07 06:58:00,